Bob Baker Memorial Airport
PAIK : now visible

Airfield :











YOU CAN JOIN US ON...

 
LOGIN :

Register | Disclaimer

   EN    FR    IT 

 









Legend :    VFR   Marginal VFR   IFR   Intensive IFR   Very Intensive IFR
Visi :
Ceiling :
>= 8 km
>= 3000ft
5 to 8 km
1000 to 3000 ft
1500m to 5 km
500 to 1000 ft
800 to 1500m
200 to 500 ft
< 800m
< 200 ft
Symbols :   Thunderstorms  Fog  Heavy snow  Heavy precipitations  Wind > 20 kt






- Airport Elevation : 166 ft
- IATA code : IAN


PAIK - Bob Baker Memorial

CURRENT METAR :
  • 010756Z AUTO 13003KT 10SM OVC030 11/09 A2979 RMK AO2 SLP088 T01110094

EXPIRED METARs :
  • 010722Z AUTO 00000KT 10SM FEW025 BKN032 OVC045 12/09 A2977 RMK AO2
  • 010656Z AUTO 00000KT 10SM BKN025 BKN037 OVC045 12/09 A2977 RMK AO2 SLP081 T01170089
  • 010556Z AUTO 23006KT 10SM SCT027 BKN032 OVC050 13/09 A2975 RMK AO2 SLP075 60001 T01280089 10150 20117 51026

TAF N/A
PAZA FIR / North America



MET'MAP, your aeronautical weather chart ! - Copyright ORBIFLY December 2007 - Disclaimer

ORBIFLY MET'MAP TEAM :

Programming & Development : Alexandra Zaïnal
Concept & original design : Baudouin d'Aumeries
Assistance for programming : Marc-Olivier Méhu
Technical & hardware support : Manuel Goepfert

Contact : metmap@orbifly.com




SOURCES & CREDITS :

   NOAA       Earth
Advisory